| time (UTC) | temp F | wind direction | speed MPH | gust MPH | rain 1hr in | rain 24hr in | rain mn in | humidity % | barometer mb |
| 20260906114823 | 66 | 67 | 0.0 | 2.0 | 0.00 | 0.00 | 0.00 | 98 | 1021.9 |
| 20260906113824 | 66 | 22 | 1.0 | 3.0 | 0.00 | 0.00 | 0.00 | 97 | 1021.7 |
| 20260906113725 | 66 | 22 | 3.0 | 5.0 | 0.00 | 0.00 | 0.00 | 98 | 1021.6 |
| 20260906112723 | 66 | 67 | 0.0 | 1.0 | 0.00 | 0.01 | 0.00 | 97 | 1021.5 |
| 20260906111723 | 66 | 67 | 0.0 | 2.0 | 0.00 | 0.01 | 0.00 | 97 | 1021.4 |
| 20260906110723 | 66 | 67 | 0.0 | 2.0 | 0.00 | 0.01 | 0.00 | 97 | 1021.5 |
| 20260906105821 | 66 | 67 | 0.0 | 3.0 | 0.00 | 0.01 | 0.00 | 98 | 1021.4 |
| 20260906104826 | 66 | 65 | 1.0 | 4.0 | 0.00 | 0.01 | 0.00 | 97 | 1021.5 |
| 20260906103922 | 66 | 64 | 0.0 | 4.0 | 0.00 | 0.01 | 0.00 | 98 | 1021.4 |
| 20260906102922 | 66 | 42 | 2.0 | 4.0 | 0.00 | 0.01 | 0.00 | 97 | 1021.4 |
| 20260906101924 | 66 | 66 | 1.0 | 3.0 | 0.00 | 0.01 | 0.00 | 97 | 1021.0 |
| 20260906100923 | 66 | 22 | 1.0 | 2.0 | 0.00 | 0.01 | 0.00 | 98 | 1021.1 |
| 20260906100022 | 66 | 67 | 0.0 | 3.0 | 0.00 | 0.01 | 0.00 | 98 | 1021.0 |
| 20260906095023 | 66 | 67 | 2.0 | 3.0 | 0.00 | 0.01 | 0.00 | 98 | 1020.9 |
| 20260906094023 | 66 | 45 | 0.0 | 2.0 | 0.00 | 0.01 | 0.00 | 97 | 1021.0 |
| 20260906093922 | 66 | 45 | 1.0 | 3.0 | 0.00 | 0.01 | 0.00 | 98 | 1021.1 |
| 20260906092922 | 65 | 45 | 1.0 | 3.0 | 0.00 | 0.01 | 0.00 | 98 | 1020.9 |
| 20260906091923 | 65 | 45 | 0.0 | 0.0 | 0.00 | 0.01 | 0.00 | 98 | 1020.8 |
| 20260906090923 | 65 | 45 | 1.0 | 3.0 | 0.00 | 0.01 | 0.00 | 97 | 1020.9 |
| 20260906090824 | 65 | 45 | 1.0 | 3.0 | 0.00 | 0.01 | 0.00 | 97 | 1020.8 |
| 20260906085922 | 65 | 38 | 2.0 | 4.0 | 0.00 | 0.01 | 0.00 | 97 | 1020.8 |
| 20260906083923 | 65 | 60 | 1.0 | 2.0 | 0.00 | 0.01 | 0.00 | 97 | 1020.8 |
| 20260906082923 | 65 | 45 | 1.0 | 2.0 | 0.00 | 0.01 | 0.00 | 96 | 1020.8 |
| 20260906081923 | 65 | 22 | 2.0 | 3.0 | 0.00 | 0.01 | 0.00 | 97 | 1020.8 |
| 20260906080922 | 65 | 45 | 0.0 | 0.0 | 0.00 | 0.01 | 0.00 | 97 | 1021.0 |
| 20260906080021 | 66 | 45 | 0.0 | 2.0 | 0.00 | 0.01 | 0.00 | 97 | 1020.9 |
| 20260906075921 | 66 | 45 | 0.0 | 0.0 | 0.00 | 0.01 | 0.00 | 97 | 1020.7 |
| 20260906074923 | 66 | 22 | 2.0 | 3.0 | 0.00 | 0.01 | 0.00 | 97 | 1020.8 |
| 20260906073924 | 66 | 24 | 1.0 | 4.0 | 0.00 | 0.01 | 0.00 | 96 | 1020.8 |
| 20260906073822 | 66 | 45 | 0.0 | 3.0 | 0.00 | 0.01 | 0.00 | 95 | 1020.9 |
| 20260906072823 | 66 | 22 | 1.0 | 2.0 | 0.00 | 0.01 | 0.00 | 95 | 1020.8 |
| 20260906071822 | 66 | 67 | 0.0 | 0.0 | 0.00 | 0.01 | 0.00 | 95 | 1020.7 |
| 20260906070822 | 66 | 67 | 0.0 | 0.0 | 0.00 | 0.01 | 0.00 | 95 | 1020.8 |
| 20260906065824 | 66 | 22 | 0.0 | 4.0 | 0.00 | 0.01 | 0.00 | 95 | 1020.8 |
| 20260906064824 | 67 | 22 | 0.0 | 1.0 | 0.00 | 0.01 | 0.00 | 95 | 1020.8 |
| 20260906063822 | 67 | 45 | 1.0 | 3.0 | 0.00 | 0.01 | 0.00 | 94 | 1020.9 |
| 20260906063722 | 67 | 45 | 0.0 | 2.0 | 0.00 | 0.01 | 0.00 | 95 | 1020.8 |
| 20260906063621 | 67 | 44 | 2.0 | 3.0 | 0.00 | 0.01 | 0.00 | 95 | 1021.0 |
| 20260906060621 | 68 | 67 | 0.0 | 2.0 | 0.00 | 0.01 | 0.00 | 93 | 1020.9 |
| 20260906055623 | 68 | 61 | 1.0 | 4.0 | 0.00 | 0.01 | 0.00 | 94 | 1020.9 |
| 20260906055521 | 68 | 67 | 2.0 | 3.0 | 0.00 | 0.01 | 0.00 | 94 | 1021.0 |
| 20260906055422 | 68 | 67 | 1.0 | 3.0 | 0.00 | 0.01 | 0.00 | 94 | 1021.0 |
| 20260906055322 | 68 | 67 | 2.0 | 3.0 | 0.00 | 0.01 | 0.00 | 94 | 1021.0 |
| 20260906054322 | 69 | 42 | 2.0 | 5.0 | 0.00 | 0.01 | 0.00 | 94 | 1021.0 |
| 20260906053323 | 69 | 67 | 0.0 | 0.0 | 0.00 | 0.01 | 0.00 | 94 | 1021.0 |
| 20260906052222 | 69 | 52 | 0.0 | 4.0 | 0.00 | 0.01 | 0.00 | 94 | 1020.7 |
| 20260906051223 | 69 | 74 | 2.0 | 5.0 | 0.00 | 0.01 | 0.00 | 94 | 1020.8 |
| 20260906050223 | 68 | 59 | 2.0 | 7.0 | 0.00 | 0.01 | 0.00 | 94 | 1020.6 |
| 20260906045230 | 68 | 56 | 4.0 | 7.0 | 0.00 | 0.01 | 0.01 | 94 | 1020.6 |
| 20260906045128 | 68 | 84 | 6.0 | 10.0 | 0.00 | 0.01 | 0.01 | 94 | 1020.6 |
| 20260906044130 | 68 | 50 | 2.0 | 6.0 | 0.00 | 0.01 | 0.01 | 94 | 1020.5 |
| 20260906044029 | 68 | 66 | 4.0 | 7.0 | 0.00 | 0.01 | 0.01 | 93 | 1020.5 |
| 20260906043030 | 68 | 67 | 0.0 | 1.0 | 0.00 | 0.01 | 0.01 | 93 | 1020.4 |
| 20260906042030 | 68 | 71 | 1.0 | 4.0 | 0.00 | 0.01 | 0.01 | 93 | 1020.3 |
| 20260906041128 | 68 | 67 | 2.0 | 5.0 | 0.00 | 0.01 | 0.01 | 94 | 1020.2 |
| 20260906040131 | 68 | 52 | 3.0 | 7.0 | 0.00 | 0.01 | 0.01 | 93 | 1020.1 |
| 20260906035229 | 68 | 105 | 4.0 | 9.0 | 0.00 | 0.01 | 0.01 | 92 | 1019.9 |
| 20260906034229 | 68 | 94 | 4.0 | 7.0 | 0.00 | 0.01 | 0.01 | 92 | 1019.9 |
| 20260906033329 | 68 | 69 | 3.0 | 7.0 | 0.00 | 0.01 | 0.01 | 92 | 1019.9 |
| 20260906032330 | 68 | 64 | 4.0 | 7.0 | 0.00 | 0.01 | 0.01 | 92 | 1019.8 |
| 20260906030428 | 69 | 76 | 6.0 | 8.0 | 0.00 | 0.01 | 0.01 | 90 | 1019.6 |
| 20260906030330 | 69 | 72 | 7.0 | 10.0 | 0.00 | 0.01 | 0.01 | 91 | 1019.7 |
| 20260906024331 | 70 | 62 | 6.0 | 9.0 | 0.00 | 0.01 | 0.01 | 89 | 1019.7 |
| 20260906022431 | 70 | 49 | 3.0 | 5.0 | 0.00 | 0.14 | 0.01 | 89 | 1019.4 |
| 20260906021528 | 70 | 59 | 3.0 | 4.0 | 0.00 | 0.16 | 0.01 | 90 | 1019.4 |
| 20260906020528 | 70 | 68 | 6.0 | 11.0 | 0.00 | 0.16 | 0.01 | 89 | 1019.6 |
| 20260906015528 | 70 | 94 | 3.0 | 7.0 | 0.00 | 0.16 | 0.01 | 90 | 1019.6 |
| 20260906014528 | 70 | 89 | 3.0 | 7.0 | 0.00 | 0.16 | 0.01 | 89 | 1019.7 |
| 20260906013529 | 70 | 66 | 2.0 | 5.0 | 0.00 | 0.16 | 0.01 | 90 | 1019.7 |
| 20260906013430 | 70 | 62 | 3.0 | 7.0 | 0.00 | 0.16 | 0.01 | 90 | 1019.6 |
| 20260906012429 | 70 | 65 | 4.0 | 9.0 | 0.00 | 0.16 | 0.01 | 88 | 1019.6 |
| 20260906011528 | 70 | 74 | 3.0 | 7.0 | 0.00 | 0.16 | 0.01 | 88 | 1019.5 |
| 20260906010529 | 71 | 57 | 3.0 | 7.0 | 0.00 | 0.16 | 0.01 | 89 | 1019.7 |
| 20260906005530 | 71 | 35 | 2.0 | 5.0 | 0.00 | 0.16 | 0.01 | 88 | 1019.6 |
| 20260906005430 | 71 | 48 | 2.0 | 5.0 | 0.00 | 0.16 | 0.01 | 87 | 1019.7 |
| 20260906004528 | 71 | 67 | 2.0 | 6.0 | 0.00 | 0.16 | 0.01 | 87 | 1019.4 |
| 20260906003529 | 71 | 74 | 2.0 | 6.0 | 0.00 | 0.16 | 0.01 | 87 | 1019.3 |
| 20260906003431 | 71 | 88 | 3.0 | 4.0 | 0.00 | 0.16 | 0.01 | 88 | 1019.4 |
| 20260906002429 | 71 | 81 | 9.0 | 13.0 | 0.00 | 0.16 | 0.01 | 88 | 1019.3 |
| 20260906001428 | 71 | 69 | 4.0 | 8.0 | 0.00 | 0.16 | 0.01 | 86 | 1019.4 |
| 20260906001330 | 71 | 69 | 4.0 | 7.0 | 0.00 | 0.16 | 0.01 | 87 | 1019.3 |
| 20260905234329 | 73 | 80 | 6.0 | 10.0 | 0.00 | 0.16 | 0.01 | 84 | 1019.0 |
| 20260905233329 | 74 | 76 | 6.0 | 10.0 | 0.00 | 0.16 | 0.01 | 82 | 1019.0 |
| 20260905233231 | 74 | 73 | 5.0 | 9.0 | 0.00 | 0.16 | 0.01 | 83 | 1018.9 |
| 20260905232229 | 74 | 73 | 7.0 | 15.0 | 0.00 | 0.16 | 0.01 | 81 | 1018.8 |
| 20260905231229 | 75 | 74 | 6.0 | 11.0 | 0.00 | 0.16 | 0.01 | 79 | 1018.8 |
| 20260905231131 | 75 | 63 | 7.0 | 10.0 | 0.00 | 0.16 | 0.01 | 80 | 1018.8 |
| 20260905230130 | 76 | 76 | 3.0 | 7.0 | 0.00 | 0.16 | 0.01 | 78 | 1018.4 |
| 20260905224129 | 77 | 56 | 5.0 | 8.0 | 0.00 | 0.16 | 0.01 | 77 | 1018.2 |
| 20260905223129 | 78 | 65 | 4.0 | 6.0 | 0.00 | 0.16 | 0.01 | 77 | 1018.1 |
| 20260905222128 | 79 | 81 | 10.0 | 15.0 | 0.00 | 0.16 | 0.01 | 76 | 1018.1 |
| 20260905220228 | 79 | 65 | 6.0 | 10.0 | 0.00 | 0.16 | 0.01 | 77 | 1018.1 |
| 20260905215228 | 79 | 76 | 8.0 | 11.0 | 0.00 | 0.16 | 0.01 | 75 | 1018.1 |
| 20260905213229 | 81 | 78 | 2.0 | 6.0 | 0.00 | 0.16 | 0.01 | 71 | 1017.7 |
| 20260905212228 | 82 | 60 | 3.0 | 5.0 | 0.00 | 0.16 | 0.01 | 70 | 1017.7 |
| 20260905210228 | 82 | 37 | 3.0 | 6.0 | 0.00 | 0.16 | 0.01 | 68 | 1017.7 |
| 20260905205231 | 81 | 67 | 4.0 | 6.0 | 0.00 | 0.16 | 0.01 | 69 | 1017.7 |
| 20260905204231 | 81 | 22 | 2.0 | 4.0 | 0.00 | 0.16 | 0.01 | 71 | 1017.9 |
| 20260905203229 | 81 | 49 | 6.0 | 9.0 | 0.00 | 0.16 | 0.01 | 73 | 1018.0 |
| 20260905202228 | 80 | 49 | 2.0 | 4.0 | 0.00 | 0.16 | 0.01 | 75 | 1017.9 |
| 20260905201229 | 80 | 59 | 5.0 | 8.0 | 0.00 | 0.16 | 0.01 | 75 | 1017.9 |
| 20260905195231 | 78 | 64 | 3.0 | 5.0 | 0.00 | 0.16 | 0.01 | 80 | 1018.2 |
| 20260905192228 | 77 | 49 | 1.0 | 3.0 | 0.00 | 0.16 | 0.01 | 84 | 1018.4 |
| 20260905190329 | 76 | 86 | 1.0 | 2.0 | 0.00 | 0.16 | 0.01 | 85 | 1018.7 |
| 20260905185428 | 76 | 37 | 4.0 | 7.0 | 0.00 | 0.16 | 0.01 | 86 | 1018.7 |
| 20260905184431 | 75 | 76 | 1.0 | 4.0 | 0.00 | 0.16 | 0.01 | 87 | 1018.7 |
| 20260905183429 | 75 | 45 | 4.0 | 5.0 | 0.00 | 0.16 | 0.01 | 87 | 1018.8 |
| 20260905182428 | 75 | 80 | 4.0 | 6.0 | 0.00 | 0.16 | 0.01 | 88 | 1018.8 |
| 20260905181429 | 75 | 69 | 2.0 | 3.0 | 0.00 | 0.16 | 0.01 | 87 | 1018.8 |
| 20260905180437 | 75 | 36 | 5.0 | 10.0 | 0.00 | 0.16 | 0.01 | 87 | 1018.7 |
| 20260905175529 | 75 | 32 | 2.0 | 6.0 | 0.00 | 0.16 | 0.01 | 87 | 1018.8 |
| 20260905172528 | 75 | 33 | 1.0 | 4.0 | 0.00 | 0.16 | 0.01 | 86 | 1018.6 |
| 20260905172429 | 75 | 18 | 2.0 | 4.0 | 0.00 | 0.16 | 0.01 | 86 | 1018.7 |
| 20260905171429 | 75 | 58 | 2.0 | 5.0 | 0.00 | 0.16 | 0.01 | 87 | 1018.7 |
| 20260905170429 | 75 | 54 | 4.0 | 10.0 | 0.00 | 0.16 | 0.01 | 87 | 1018.8 |
| 20260905165428 | 76 | 11 | 0.0 | 4.0 | 0.00 | 0.16 | 0.01 | 87 | 1018.8 |
| 20260905164528 | 76 | 38 | 6.0 | 10.0 | 0.00 | 0.20 | 0.01 | 87 | 1018.9 |
| 20260905162529 | 76 | 26 | 4.0 | 7.0 | 0.00 | 0.28 | 0.01 | 87 | 1018.7 |
| 20260905162427 | 76 | 19 | 5.0 | 8.0 | 0.00 | 0.28 | 0.01 | 88 | 1018.7 |
| 20260905161430 | 76 | 60 | 1.0 | 4.0 | 0.00 | 0.28 | 0.01 | 88 | 1018.7 |
| 20260905160428 | 76 | 22 | 0.0 | 1.0 | 0.00 | 0.28 | 0.01 | 89 | 1018.8 |
| 20260905155429 | 76 | 71 | 4.0 | 7.0 | 0.00 | 0.28 | 0.01 | 90 | 1018.7 |
| 20260905154429 | 76 | 65 | 5.0 | 8.0 | 0.00 | 0.28 | 0.01 | 91 | 1018.5 |
| 20260905153431 | 75 | 75 | 4.0 | 7.0 | 0.00 | 0.28 | 0.01 | 93 | 1018.4 |
| 20260905152429 | 74 | 58 | 2.0 | 5.0 | 0.00 | 0.28 | 0.01 | 94 | 1018.2 |
| 20260905144428 | 73 | 61 | 4.0 | 7.0 | 0.00 | 0.28 | 0.01 | 97 | 1018.1 |
| 20260905142527 | 72 | 67 | 2.0 | 6.0 | 0.00 | 0.28 | 0.01 | 98 | 1018.0 |
| 20260905141529 | 72 | 67 | 1.0 | 7.0 | 0.00 | 0.28 | 0.01 | 98 | 1018.1 |
| 20260905140531 | 72 | 67 | 1.0 | 3.0 | 0.00 | 0.28 | 0.01 | 98 | 1018.0 |
| 20260905135530 | 72 | 73 | 3.0 | 8.0 | 0.00 | 0.28 | 0.01 | 98 | 1017.9 |
| 20260905133529 | 72 | 49 | 3.0 | 7.0 | 0.00 | 0.28 | 0.01 | 98 | 1017.9 |
| 20260905133428 | 72 | 43 | 3.0 | 6.0 | 0.00 | 0.28 | 0.01 | 99 | 1017.9 |
| 20260905131430 | 71 | 67 | 1.0 | 4.0 | 0.00 | 0.28 | 0.01 | 98 | 1018.2 |
| 20260905130430 | 71 | 45 | 1.0 | 3.0 | 0.00 | 0.28 | 0.01 | 97 | 1018.1 |
| 20260905125429 | 71 | 73 | 3.0 | 6.0 | 0.00 | 0.28 | 0.01 | 97 | 1017.7 |
| 20260905125330 | 71 | 87 | 3.0 | 5.0 | 0.00 | 0.28 | 0.01 | 97 | 1017.8 |
| 20260905124330 | 71 | 67 | 3.0 | 7.0 | 0.00 | 0.28 | 0.01 | 97 | 1017.7 |
| 20260905123331 | 71 | 68 | 4.0 | 8.0 | 0.00 | 0.28 | 0.01 | 97 | 1017.5 |
| 20260905123230 | 71 | 74 | 4.0 | 7.0 | 0.00 | 0.28 | 0.01 | 98 | 1017.5 |
| 20260905122227 | 71 | 74 | 4.0 | 7.0 | 0.01 | 0.28 | 0.01 | 98 | 1017.2 |
| 20260905121131 | 71 | 68 | 2.0 | 7.0 | 0.01 | 0.28 | 0.01 | 97 | 1017.0 |